Year,Month,Day,Hour,Minute,Value (Times are PST for windspeed in km/hr)
2020,04,25,00,00,0.00
2020,04,25,00,01,0.00
2020,04,25,00,02,0.00
2020,04,25,00,03,0.00
2020,04,25,00,04,0.00
2020,04,25,00,05,0.00
2020,04,25,00,06,0.00
2020,04,25,00,07,0.00
2020,04,25,00,08,0.00
2020,04,25,00,09,0.00
2020,04,25,00,10,0.00
2020,04,25,00,11,0.00
2020,04,25,00,12,0.00
2020,04,25,00,13,0.00
2020,04,25,00,14,0.00
2020,04,25,00,15,0.00
2020,04,25,00,16,0.00
2020,04,25,00,17,0.00
2020,04,25,00,18,0.00
2020,04,25,00,19,0.00
2020,04,25,00,20,0.00
2020,04,25,00,21,0.00
2020,04,25,00,22,0.00
2020,04,25,00,23,0.00
2020,04,25,00,24,0.00
2020,04,25,00,25,0.00
2020,04,25,00,26,0.00
2020,04,25,00,27,0.00
2020,04,25,00,28,0.00
2020,04,25,00,29,0.00
2020,04,25,00,30,0.00
2020,04,25,00,31,0.00
2020,04,25,00,32,0.00
2020,04,25,00,33,0.00
2020,04,25,00,34,0.00
2020,04,25,00,35,0.00
2020,04,25,00,36,0.00
2020,04,25,00,37,0.00
2020,04,25,00,38,0.00
2020,04,25,00,39,0.00
2020,04,25,00,40,0.00
2020,04,25,00,41,0.00
2020,04,25,00,42,0.00
2020,04,25,00,43,0.00
2020,04,25,00,44,0.00
2020,04,25,00,45,0.00
2020,04,25,00,46,0.00
2020,04,25,00,47,0.00
2020,04,25,00,48,0.00
2020,04,25,00,49,0.00
2020,04,25,00,50,0.00
2020,04,25,00,51,0.00
2020,04,25,00,52,0.00
2020,04,25,00,53,0.00
2020,04,25,00,54,0.00
2020,04,25,00,55,0.00
2020,04,25,00,56,0.00
2020,04,25,00,57,0.00
2020,04,25,00,58,0.00
2020,04,25,00,59,0.00
2020,04,25,01,00,0.00
2020,04,25,01,01,0.00
2020,04,25,01,02,0.00
2020,04,25,01,03,0.00
2020,04,25,01,04,0.00
2020,04,25,01,05,0.00
2020,04,25,01,06,0.00
2020,04,25,01,07,0.00
2020,04,25,01,08,0.00
2020,04,25,01,09,0.00
2020,04,25,01,10,0.00
2020,04,25,01,11,0.00
2020,04,25,01,12,0.00
2020,04,25,01,13,0.00
2020,04,25,01,14,0.00
2020,04,25,01,15,0.00
2020,04,25,01,16,0.00
2020,04,25,01,17,0.00
2020,04,25,01,18,0.00
2020,04,25,01,19,0.00
2020,04,25,01,20,0.00
2020,04,25,01,21,0.00
2020,04,25,01,22,0.00
2020,04,25,01,23,0.00
2020,04,25,01,24,0.00
2020,04,25,01,25,0.00
2020,04,25,01,26,0.00
2020,04,25,01,27,0.00
2020,04,25,01,28,0.00
2020,04,25,01,29,0.00
2020,04,25,01,30,0.00
2020,04,25,01,31,0.00
2020,04,25,01,32,0.00
2020,04,25,01,33,0.00
2020,04,25,01,34,0.00
2020,04,25,01,35,0.00
2020,04,25,01,36,0.00
2020,04,25,01,37,0.00
2020,04,25,01,38,0.00
2020,04,25,01,39,0.00
2020,04,25,01,40,0.00
2020,04,25,01,41,0.00
2020,04,25,01,42,0.00
2020,04,25,01,43,0.00
2020,04,25,01,44,0.00
2020,04,25,01,45,0.00
2020,04,25,01,46,0.00
2020,04,25,01,47,0.00
2020,04,25,01,48,0.00
2020,04,25,01,49,0.00
2020,04,25,01,50,0.00
2020,04,25,01,51,0.00
2020,04,25,01,52,0.00
2020,04,25,01,53,0.00
2020,04,25,01,54,0.00
2020,04,25,01,55,0.00
2020,04,25,01,56,0.00
2020,04,25,01,57,0.00
2020,04,25,01,58,0.00
2020,04,25,01,59,0.00
2020,04,25,02,00,0.00
2020,04,25,02,01,0.00
2020,04,25,02,02,0.00
2020,04,25,02,03,0.00
2020,04,25,02,04,0.00
2020,04,25,02,05,0.00
2020,04,25,02,06,0.00
2020,04,25,02,07,0.00
2020,04,25,02,08,0.00
2020,04,25,02,09,0.00
2020,04,25,02,10,0.00
2020,04,25,02,11,0.00
2020,04,25,02,12,0.00
2020,04,25,02,13,0.00
2020,04,25,02,14,0.00
2020,04,25,02,15,0.00
2020,04,25,02,16,0.00
2020,04,25,02,17,0.00
2020,04,25,02,18,0.00
2020,04,25,02,19,0.00
2020,04,25,02,20,0.00
2020,04,25,02,21,0.00
2020,04,25,02,22,0.00
2020,04,25,02,23,0.00
2020,04,25,02,24,0.00
2020,04,25,02,25,0.00
2020,04,25,02,26,0.00
2020,04,25,02,27,0.00
2020,04,25,02,28,0.00
2020,04,25,02,29,0.00
2020,04,25,02,30,0.00
2020,04,25,02,31,0.00
2020,04,25,02,32,0.00
2020,04,25,02,33,0.00
2020,04,25,02,34,0.00
2020,04,25,02,35,0.00
2020,04,25,02,36,0.00
2020,04,25,02,37,0.00
2020,04,25,02,38,0.00
2020,04,25,02,39,0.00
2020,04,25,02,40,0.00
2020,04,25,02,41,0.00
2020,04,25,02,42,0.00
2020,04,25,02,43,0.00
2020,04,25,02,44,0.00
2020,04,25,02,45,0.00
2020,04,25,02,46,0.00
2020,04,25,02,47,0.00
2020,04,25,02,48,0.00
2020,04,25,02,49,0.00
2020,04,25,02,50,0.00
2020,04,25,02,51,0.00
2020,04,25,02,52,0.00
2020,04,25,02,53,0.20
2020,04,25,02,54,0.00
2020,04,25,02,55,0.00
2020,04,25,02,56,0.00
2020,04,25,02,57,0.00
2020,04,25,02,58,0.00
2020,04,25,02,59,0.00
2020,04,25,03,00,0.00
2020,04,25,03,01,0.00
2020,04,25,03,02,0.00
2020,04,25,03,03,0.00
2020,04,25,03,04,0.00
2020,04,25,03,05,0.00
2020,04,25,03,06,0.00
2020,04,25,03,07,0.00
2020,04,25,03,08,0.00
2020,04,25,03,09,0.00
2020,04,25,03,10,0.00
2020,04,25,03,11,0.00
2020,04,25,03,12,0.00
2020,04,25,03,13,0.00
2020,04,25,03,14,0.00
2020,04,25,03,15,0.00
2020,04,25,03,16,0.00
2020,04,25,03,17,0.00
2020,04,25,03,18,0.00
2020,04,25,03,19,0.00
2020,04,25,03,20,0.00
2020,04,25,03,21,0.00
2020,04,25,03,22,0.00
2020,04,25,03,23,0.00
2020,04,25,03,24,0.00
2020,04,25,03,25,0.00
2020,04,25,03,26,0.00
2020,04,25,03,27,0.00
2020,04,25,03,28,0.00
2020,04,25,03,29,0.00
2020,04,25,03,30,0.00
2020,04,25,03,31,0.00
2020,04,25,03,32,0.00
2020,04,25,03,33,0.00
2020,04,25,03,34,0.00
2020,04,25,03,35,0.00
2020,04,25,03,36,0.00
2020,04,25,03,37,0.00
2020,04,25,03,38,0.00
2020,04,25,03,39,0.00
2020,04,25,03,40,0.10
2020,04,25,03,41,0.40
2020,04,25,03,42,0.00
2020,04,25,03,43,0.00
2020,04,25,03,44,0.00
2020,04,25,03,45,0.00
2020,04,25,03,46,0.00
2020,04,25,03,47,0.00
2020,04,25,03,48,0.00
2020,04,25,03,49,0.00
2020,04,25,03,50,0.00
2020,04,25,03,51,0.00
2020,04,25,03,52,0.00
2020,04,25,03,53,0.00
2020,04,25,03,54,0.00
2020,04,25,03,55,0.00
2020,04,25,03,56,0.00
2020,04,25,03,57,0.70
2020,04,25,03,58,0.00
2020,04,25,03,59,0.00
2020,04,25,04,00,0.00
2020,04,25,04,01,0.00
2020,04,25,04,02,0.00
2020,04,25,04,03,0.00
2020,04,25,04,04,0.00
2020,04,25,04,05,0.00
2020,04,25,04,06,0.00
2020,04,25,04,07,0.00
2020,04,25,04,08,0.00
2020,04,25,04,09,0.00
2020,04,25,04,10,0.00
2020,04,25,04,11,0.00
2020,04,25,04,12,0.00
2020,04,25,04,13,0.00
2020,04,25,04,14,0.00
2020,04,25,04,15,0.00
2020,04,25,04,16,0.00
2020,04,25,04,17,0.00
2020,04,25,04,18,0.00
2020,04,25,04,19,0.00
2020,04,25,04,20,0.00
2020,04,25,04,21,0.00
2020,04,25,04,22,0.00
2020,04,25,04,23,0.00
2020,04,25,04,24,0.00
2020,04,25,04,25,0.00
2020,04,25,04,26,0.10
2020,04,25,04,27,0.20
2020,04,25,04,28,0.60
2020,04,25,04,29,0.30
2020,04,25,04,30,0.00
2020,04,25,04,31,0.00
2020,04,25,04,32,0.00
2020,04,25,04,33,0.00
2020,04,25,04,34,0.00
2020,04,25,04,35,0.00
2020,04,25,04,36,0.00
2020,04,25,04,37,0.00
2020,04,25,04,38,0.00
2020,04,25,04,39,0.00
2020,04,25,04,40,0.00
2020,04,25,04,41,0.00
2020,04,25,04,42,0.00
2020,04,25,04,43,0.00
2020,04,25,04,44,0.00
2020,04,25,04,45,0.00
2020,04,25,04,46,0.00
2020,04,25,04,47,0.00
2020,04,25,04,48,0.00
2020,04,25,04,49,0.00
2020,04,25,04,50,0.00
2020,04,25,04,51,0.00
2020,04,25,04,52,0.00
2020,04,25,04,53,0.00
2020,04,25,04,54,0.60
2020,04,25,04,55,0.10
2020,04,25,04,56,0.20
2020,04,25,04,57,0.10
2020,04,25,04,58,0.90
2020,04,25,04,59,0.00
2020,04,25,05,00,0.00
2020,04,25,05,01,0.00
2020,04,25,05,02,0.00
2020,04,25,05,03,0.00
2020,04,25,05,04,0.20
2020,04,25,05,05,0.00
2020,04,25,05,06,0.00
2020,04,25,05,07,0.00
2020,04,25,05,08,0.00
2020,04,25,05,09,0.00
2020,04,25,05,10,0.00
2020,04,25,05,11,0.40
2020,04,25,05,12,1.50
2020,04,25,05,13,0.00
2020,04,25,05,14,0.00
2020,04,25,05,15,0.00
2020,04,25,05,16,0.00
2020,04,25,05,17,0.00
2020,04,25,05,18,2.10
2020,04,25,05,19,3.10
2020,04,25,05,20,0.00
2020,04,25,05,21,0.00
2020,04,25,05,22,0.00
2020,04,25,05,23,0.00
2020,04,25,05,24,0.00
2020,04,25,05,25,0.00
2020,04,25,05,26,0.00
2020,04,25,05,27,0.00
2020,04,25,05,28,0.00
2020,04,25,05,29,0.00
2020,04,25,05,30,0.00
2020,04,25,05,31,0.00
2020,04,25,05,32,0.00
2020,04,25,05,33,0.00
2020,04,25,05,34,0.00
2020,04,25,05,35,0.00
2020,04,25,05,36,0.00
2020,04,25,05,37,1.10
2020,04,25,05,38,1.90
2020,04,25,05,39,0.00
2020,04,25,05,40,0.10
2020,04,25,05,41,0.00
2020,04,25,05,42,0.00
2020,04,25,05,43,0.00
2020,04,25,05,44,0.10
2020,04,25,05,45,2.00
2020,04,25,05,46,0.00
2020,04,25,05,47,0.00
2020,04,25,05,48,0.00
2020,04,25,05,49,0.00
2020,04,25,05,50,0.00
2020,04,25,05,51,0.00
2020,04,25,05,52,0.00
2020,04,25,05,53,0.00
2020,04,25,05,54,0.00
2020,04,25,05,55,0.00
2020,04,25,05,56,0.00
2020,04,25,05,57,0.10
2020,04,25,05,58,0.00
2020,04,25,05,59,0.00
2020,04,25,06,00,0.30
2020,04,25,06,01,1.10
2020,04,25,06,02,0.60
2020,04,25,06,03,0.00
2020,04,25,06,04,0.00
2020,04,25,06,05,0.00
2020,04,25,06,06,0.00
2020,04,25,06,07,0.00
2020,04,25,06,08,0.00
2020,04,25,06,09,0.00
2020,04,25,06,10,0.00
2020,04,25,06,11,0.00
2020,04,25,06,12,0.00
2020,04,25,06,13,0.00
2020,04,25,06,14,2.60
2020,04,25,06,15,2.50
2020,04,25,06,16,0.30
2020,04,25,06,17,0.00
2020,04,25,06,18,0.00
2020,04,25,06,19,0.00
2020,04,25,06,20,0.00
2020,04,25,06,21,0.00
2020,04,25,06,22,0.00
2020,04,25,06,23,0.10
2020,04,25,06,24,0.00
2020,04,25,06,25,0.00
2020,04,25,06,26,0.00
2020,04,25,06,27,0.00
2020,04,25,06,28,0.00
2020,04,25,06,29,0.00
2020,04,25,06,30,0.00
2020,04,25,06,31,0.00
2020,04,25,06,32,0.00
2020,04,25,06,33,0.00
2020,04,25,06,34,0.00
2020,04,25,06,35,0.00
2020,04,25,06,36,0.00
2020,04,25,06,37,0.00
2020,04,25,06,38,0.00
2020,04,25,06,39,0.00
2020,04,25,06,40,0.00
2020,04,25,06,41,0.00
2020,04,25,06,42,0.00
2020,04,25,06,43,0.30
2020,04,25,06,44,0.20
2020,04,25,06,45,0.00
2020,04,25,06,46,0.00
2020,04,25,06,47,0.00
2020,04,25,06,48,0.00
2020,04,25,06,49,0.00
2020,04,25,06,50,0.00
2020,04,25,06,51,0.00
2020,04,25,06,52,0.10
2020,04,25,06,53,0.00
2020,04,25,06,54,0.00
2020,04,25,06,55,0.00
2020,04,25,06,56,0.00
2020,04,25,06,57,0.00
2020,04,25,06,58,0.00
2020,04,25,06,59,0.00
2020,04,25,07,00,0.00
2020,04,25,07,01,0.00
2020,04,25,07,02,0.00
2020,04,25,07,03,0.00
2020,04,25,07,04,0.00
2020,04,25,07,05,0.00
2020,04,25,07,06,0.00
2020,04,25,07,07,0.00
2020,04,25,07,08,0.00
2020,04,25,07,09,0.00
2020,04,25,07,10,0.00
2020,04,25,07,11,0.00
2020,04,25,07,12,0.00
2020,04,25,07,13,0.00
2020,04,25,07,14,0.00
2020,04,25,07,15,0.00
2020,04,25,07,16,0.00
2020,04,25,07,17,0.00
2020,04,25,07,18,0.00
2020,04,25,07,19,0.00
2020,04,25,07,20,0.00
2020,04,25,07,21,0.00
2020,04,25,07,22,0.00
2020,04,25,07,23,1.80
2020,04,25,07,24,2.50
2020,04,25,07,25,4.80
2020,04,25,07,26,4.50
2020,04,25,07,27,4.60
2020,04,25,07,28,4.30
2020,04,25,07,29,6.10
2020,04,25,07,30,5.20
2020,04,25,07,31,4.60
2020,04,25,07,32,3.50
2020,04,25,07,33,2.10
2020,04,25,07,34,1.80
2020,04,25,07,35,3.40
2020,04,25,07,36,4.20
2020,04,25,07,37,1.20
2020,04,25,07,38,3.30
2020,04,25,07,39,2.10
2020,04,25,07,40,3.60
2020,04,25,07,41,2.60
2020,04,25,07,42,3.60
2020,04,25,07,43,3.70
2020,04,25,07,44,5.50
2020,04,25,07,45,4.50
2020,04,25,07,46,4.70
2020,04,25,07,47,3.40
2020,04,25,07,48,2.70
2020,04,25,07,49,5.10
2020,04,25,07,50,4.20
2020,04,25,07,51,3.90
2020,04,25,07,52,5.70
2020,04,25,07,53,3.50
2020,04,25,07,54,4.20
2020,04,25,07,55,0.00
2020,04,25,07,56,1.90
2020,04,25,07,57,5.40
2020,04,25,07,58,4.10
2020,04,25,07,59,7.30
2020,04,25,08,00,6.30
2020,04,25,08,01,3.30
2020,04,25,08,02,3.30
2020,04,25,08,03,4.20
2020,04,25,08,04,6.00
2020,04,25,08,05,3.80
2020,04,25,08,06,0.00
2020,04,25,08,07,0.00
2020,04,25,08,08,6.00
2020,04,25,08,09,3.10
2020,04,25,08,10,2.90
2020,04,25,08,11,4.80
2020,04,25,08,12,4.70
2020,04,25,08,13,5.30
2020,04,25,08,14,5.60
2020,04,25,08,15,6.30
2020,04,25,08,16,5.90
2020,04,25,08,17,7.60
2020,04,25,08,18,6.90
2020,04,25,08,19,4.10
2020,04,25,08,20,4.90
2020,04,25,08,21,4.00
2020,04,25,08,22,3.10
2020,04,25,08,23,5.10
2020,04,25,08,24,1.40
2020,04,25,08,25,2.00
2020,04,25,08,26,6.40
2020,04,25,08,27,6.60
2020,04,25,08,28,6.10
2020,04,25,08,29,6.10
2020,04,25,08,30,0.60
2020,04,25,08,31,7.60
2020,04,25,08,32,6.70
2020,04,25,08,33,5.70
2020,04,25,08,34,5.10
2020,04,25,08,35,4.50
2020,04,25,08,36,7.90
2020,04,25,08,37,5.60
2020,04,25,08,38,11.10
2020,04,25,08,39,8.30
2020,04,25,08,40,4.90
2020,04,25,08,41,9.70
2020,04,25,08,42,5.70
2020,04,25,08,43,1.70
2020,04,25,08,44,7.90
2020,04,25,08,45,3.90
2020,04,25,08,46,8.70
2020,04,25,08,47,0.00
2020,04,25,08,48,0.00
2020,04,25,08,49,8.30
2020,04,25,08,50,10.50
2020,04,25,08,51,8.30
2020,04,25,08,52,9.80
2020,04,25,08,53,9.70
2020,04,25,08,54,7.50
2020,04,25,08,55,5.30
2020,04,25,08,56,7.40
2020,04,25,08,57,3.90
2020,04,25,08,58,3.80
2020,04,25,08,59,12.80
2020,04,25,09,00,7.60
2020,04,25,09,01,5.60
2020,04,25,09,02,0.90
2020,04,25,09,03,2.00
2020,04,25,09,04,7.00
2020,04,25,09,05,5.10
2020,04,25,09,06,5.50
2020,04,25,09,07,6.40
2020,04,25,09,08,4.80
2020,04,25,09,09,9.30
2020,04,25,09,10,5.80
2020,04,25,09,11,3.10
2020,04,25,09,12,1.50
2020,04,25,09,13,2.20
2020,04,25,09,14,2.50
2020,04,25,09,15,2.80
2020,04,25,09,16,0.30
2020,04,25,09,17,0.60
2020,04,25,09,18,2.80
2020,04,25,09,19,4.30
2020,04,25,09,20,3.40
2020,04,25,09,21,4.10
2020,04,25,09,22,2.50
2020,04,25,09,23,4.00
2020,04,25,09,24,5.70
2020,04,25,09,25,0.00
2020,04,25,09,26,6.70
2020,04,25,09,27,9.70
2020,04,25,09,28,4.60
2020,04,25,09,29,6.30
2020,04,25,09,30,6.40
2020,04,25,09,31,3.50
2020,04,25,09,32,0.00
2020,04,25,09,33,3.80
2020,04,25,09,34,0.00
2020,04,25,09,35,2.10
2020,04,25,09,36,0.00
2020,04,25,09,37,0.00
2020,04,25,09,38,0.30
2020,04,25,09,39,0.90
2020,04,25,09,40,3.20
2020,04,25,09,41,4.70
2020,04,25,09,42,2.40
2020,04,25,09,43,3.20
2020,04,25,09,44,2.80
2020,04,25,09,45,3.50
2020,04,25,09,46,0.00
2020,04,25,09,47,0.00
2020,04,25,09,48,0.00
2020,04,25,09,49,0.30
2020,04,25,09,50,0.20
2020,04,25,09,51,0.20
2020,04,25,09,52,0.20
2020,04,25,09,53,0.30
2020,04,25,09,54,0.00
2020,04,25,09,55,7.10
2020,04,25,09,56,0.30
2020,04,25,09,57,0.10
2020,04,25,09,58,7.50
2020,04,25,09,59,1.40
2020,04,25,10,00,0.30
2020,04,25,10,01,0.00
2020,04,25,10,02,0.00
2020,04,25,10,03,0.10
2020,04,25,10,04,0.00
2020,04,25,10,05,0.00
2020,04,25,10,06,4.60
2020,04,25,10,07,3.50
2020,04,25,10,08,0.10
2020,04,25,10,09,0.90
2020,04,25,10,10,0.60
2020,04,25,10,11,9.10
2020,04,25,10,12,1.80
2020,04,25,10,13,2.60
2020,04,25,10,14,1.90
2020,04,25,10,15,2.70
2020,04,25,10,16,0.00
2020,04,25,10,17,0.20
2020,04,25,10,18,4.30
2020,04,25,10,19,3.40
2020,04,25,10,20,0.10
2020,04,25,10,21,1.40
2020,04,25,10,22,5.10
2020,04,25,10,23,3.70
2020,04,25,10,24,1.00
2020,04,25,10,25,0.00
2020,04,25,10,26,0.00
2020,04,25,10,27,0.00
2020,04,25,10,28,1.00
2020,04,25,10,29,3.60
2020,04,25,10,30,3.10
2020,04,25,10,31,2.10
2020,04,25,10,32,6.10
2020,04,25,10,33,7.20
2020,04,25,10,34,10.70
2020,04,25,10,35,6.20
2020,04,25,10,36,0.00
2020,04,25,10,37,7.40
2020,04,25,10,38,2.80
2020,04,25,10,39,10.90
2020,04,25,10,40,1.80
2020,04,25,10,41,21.80
2020,04,25,10,42,13.50
2020,04,25,10,43,0.00
2020,04,25,10,44,2.30
2020,04,25,10,45,5.40
2020,04,25,10,46,1.10
2020,04,25,10,47,6.00
2020,04,25,10,48,1.90
2020,04,25,10,49,5.20
2020,04,25,10,50,6.20
2020,04,25,10,51,0.10
2020,04,25,10,52,0.00
2020,04,25,10,53,0.00
2020,04,25,10,54,0.00
2020,04,25,10,55,0.00
2020,04,25,10,56,0.00
2020,04,25,10,57,0.00
2020,04,25,10,58,1.40
2020,04,25,10,59,1.80
2020,04,25,11,00,3.10
2020,04,25,11,01,0.60
2020,04,25,11,02,0.00
2020,04,25,11,03,0.00
2020,04,25,11,04,14.40
2020,04,25,11,05,6.00
2020,04,25,11,06,0.00
2020,04,25,11,07,0.00
2020,04,25,11,08,0.10
2020,04,25,11,09,2.60
2020,04,25,11,10,8.40
2020,04,25,11,11,6.20
2020,04,25,11,12,2.60
2020,04,25,11,13,2.60
2020,04,25,11,14,7.20
2020,04,25,11,15,17.90
2020,04,25,11,16,13.90
2020,04,25,11,17,16.30
2020,04,25,11,18,15.40
2020,04,25,11,19,13.20
2020,04,25,11,20,7.30
2020,04,25,11,21,1.90
2020,04,25,11,22,8.30
2020,04,25,11,23,7.30
2020,04,25,11,24,25.00
2020,04,25,11,25,28.30
2020,04,25,11,26,20.70
2020,04,25,11,27,25.90
2020,04,25,11,28,17.50
2020,04,25,11,29,2.50
2020,04,25,11,30,4.30
2020,04,25,11,31,15.20
2020,04,25,11,32,14.80
2020,04,25,11,33,23.30
2020,04,25,11,34,7.60
2020,04,25,11,35,17.90
2020,04,25,11,36,21.80
2020,04,25,11,37,25.70
2020,04,25,11,38,8.70
2020,04,25,11,39,4.70
2020,04,25,11,40,13.30
2020,04,25,11,41,12.10
2020,04,25,11,42,21.50
2020,04,25,11,43,23.80
2020,04,25,11,44,8.00
2020,04,25,11,45,19.80
2020,04,25,11,46,2.70
2020,04,25,11,47,3.50
2020,04,25,11,48,7.80
2020,04,25,11,49,9.30
2020,04,25,11,50,7.50
2020,04,25,11,51,2.10
2020,04,25,11,52,4.10
2020,04,25,11,53,1.00
2020,04,25,11,54,10.30
2020,04,25,11,55,7.40
2020,04,25,11,56,3.50
2020,04,25,11,57,10.50
2020,04,25,11,58,22.90
2020,04,25,11,59,39.40
2020,04,25,12,00,23.60
2020,04,25,12,01,9.50
2020,04,25,12,02,16.10
2020,04,25,12,03,6.20
2020,04,25,12,04,4.50
2020,04,25,12,05,14.90
2020,04,25,12,06,27.40
2020,04,25,12,07,24.80
2020,04,25,12,08,12.90
2020,04,25,12,09,17.90
2020,04,25,12,10,12.70
2020,04,25,12,11,16.00
2020,04,25,12,12,23.10
2020,04,25,12,13,20.50
2020,04,25,12,14,19.60
2020,04,25,12,15,27.80
2020,04,25,12,16,14.90
2020,04,25,12,17,17.30
2020,04,25,12,18,21.50
2020,04,25,12,19,6.80
2020,04,25,12,20,1.10
2020,04,25,12,21,8.00
2020,04,25,12,22,16.30
2020,04,25,12,23,14.90
2020,04,25,12,24,15.10
2020,04,25,12,25,16.40
2020,04,25,12,26,19.50
2020,04,25,12,27,22.40
2020,04,25,12,28,18.50
2020,04,25,12,29,22.00
2020,04,25,12,30,27.70
2020,04,25,12,31,18.40
2020,04,25,12,32,18.50
2020,04,25,12,33,15.90
2020,04,25,12,34,22.00
2020,04,25,12,35,23.20
2020,04,25,12,36,21.60
2020,04,25,12,37,29.60
2020,04,25,12,38,31.10
2020,04,25,12,39,28.90
2020,04,25,12,40,19.50
2020,04,25,12,41,11.70
2020,04,25,12,42,28.20
2020,04,25,12,43,7.20
2020,04,25,12,44,9.70
2020,04,25,12,45,7.00
2020,04,25,12,46,10.30
2020,04,25,12,47,7.30
2020,04,25,12,48,11.90
2020,04,25,12,49,2.20
2020,04,25,12,50,7.20
2020,04,25,12,51,3.40
2020,04,25,12,52,2.90
2020,04,25,12,53,17.30
2020,04,25,12,54,18.90
2020,04,25,12,55,27.40
2020,04,25,12,56,29.70
2020,04,25,12,57,30.10
2020,04,25,12,58,27.40
2020,04,25,12,59,21.70
2020,04,25,13,00,7.30
2020,04,25,13,01,13.00
2020,04,25,13,02,29.10
2020,04,25,13,03,28.00
2020,04,25,13,04,27.40
2020,04,25,13,05,25.00
2020,04,25,13,06,22.00
2020,04,25,13,07,36.00
2020,04,25,13,08,26.60
2020,04,25,13,09,10.80
2020,04,25,13,10,13.40
2020,04,25,13,11,34.30
2020,04,25,13,12,20.60
2020,04,25,13,13,24.50
2020,04,25,13,14,21.00
2020,04,25,13,15,10.20
2020,04,25,13,16,18.30
2020,04,25,13,17,18.20
2020,04,25,13,18,22.00
2020,04,25,13,19,27.40
2020,04,25,13,20,27.30
2020,04,25,13,21,33.60
2020,04,25,13,22,22.90
2020,04,25,13,23,21.00
2020,04,25,13,24,19.80
2020,04,25,13,25,24.70
2020,04,25,13,26,22.20
2020,04,25,13,27,23.20
2020,04,25,13,28,30.20
2020,04,25,13,29,28.00
2020,04,25,13,30,22.10
2020,04,25,13,31,34.20
2020,04,25,13,32,23.20
2020,04,25,13,33,22.70
2020,04,25,13,34,8.00
2020,04,25,13,35,12.00
2020,04,25,13,36,10.30
2020,04,25,13,37,4.30
2020,04,25,13,38,9.30
2020,04,25,13,39,28.60
2020,04,25,13,40,13.40
2020,04,25,13,41,6.30
2020,04,25,13,42,17.90
2020,04,25,13,43,5.80
2020,04,25,13,44,11.00
2020,04,25,13,45,19.60
2020,04,25,13,46,16.80
2020,04,25,13,47,9.00
2020,04,25,13,48,12.20
2020,04,25,13,49,14.70
2020,04,25,13,50,21.60
2020,04,25,13,51,10.70
2020,04,25,13,52,17.40
2020,04,25,13,53,6.80
2020,04,25,13,54,0.00
2020,04,25,13,55,0.00
2020,04,25,13,56,0.00
2020,04,25,13,57,0.00
2020,04,25,13,58,0.00
2020,04,25,13,59,0.00
2020,04,25,14,00,0.00
2020,04,25,14,01,0.00
2020,04,25,14,02,6.00
2020,04,25,14,03,26.10
2020,04,25,14,04,16.70
2020,04,25,14,05,25.60
2020,04,25,14,06,16.70
2020,04,25,14,07,17.20
2020,04,25,14,08,29.70
2020,04,25,14,09,16.20
2020,04,25,14,10,6.40
2020,04,25,14,11,19.20
2020,04,25,14,12,7.10
2020,04,25,14,13,18.20
2020,04,25,14,14,15.60
2020,04,25,14,15,30.00
2020,04,25,14,16,13.30
2020,04,25,14,17,22.70
2020,04,25,14,18,26.50
2020,04,25,14,19,18.20
2020,04,25,14,20,24.50
2020,04,25,14,21,15.00
2020,04,25,14,22,23.80
2020,04,25,14,23,17.90
2020,04,25,14,24,12.30
2020,04,25,14,25,23.30
2020,04,25,14,26,21.50
2020,04,25,14,27,16.90
2020,04,25,14,28,23.10
2020,04,25,14,29,24.80
2020,04,25,14,30,19.10
2020,04,25,14,31,17.00
2020,04,25,14,32,25.00
2020,04,25,14,33,10.10
2020,04,25,14,34,20.60
2020,04,25,14,35,23.70
2020,04,25,14,36,16.30
2020,04,25,14,37,19.60
2020,04,25,14,38,11.50
2020,04,25,14,39,10.60
2020,04,25,14,40,10.80
2020,04,25,14,41,18.20
2020,04,25,14,42,19.60
2020,04,25,14,43,11.00
2020,04,25,14,44,18.10
2020,04,25,14,45,12.00
2020,04,25,14,46,6.40
2020,04,25,14,47,18.30
2020,04,25,14,48,13.10
2020,04,25,14,49,11.30
2020,04,25,14,50,17.30
2020,04,25,14,51,15.20
2020,04,25,14,52,17.30
2020,04,25,14,53,16.90
2020,04,25,14,54,10.30
2020,04,25,14,55,20.20
2020,04,25,14,56,14.50
2020,04,25,14,57,10.70
2020,04,25,14,58,21.20
2020,04,25,14,59,13.40
2020,04,25,15,00,14.60
2020,04,25,15,01,18.90
2020,04,25,15,02,4.30
2020,04,25,15,03,0.60
2020,04,25,15,04,12.40
2020,04,25,15,05,9.20
2020,04,25,15,06,17.50
2020,04,25,15,07,19.10
2020,04,25,15,08,11.90
2020,04,25,15,09,18.50
2020,04,25,15,10,10.50
2020,04,25,15,11,17.50
2020,04,25,15,12,0.00
2020,04,25,15,13,12.60
2020,04,25,15,14,10.30
2020,04,25,15,15,16.20
2020,04,25,15,16,10.60
2020,04,25,15,17,15.00
2020,04,25,15,18,5.50
2020,04,25,15,19,19.80
2020,04,25,15,20,1.40
2020,04,25,15,21,6.50
2020,04,25,15,22,18.40
2020,04,25,15,23,17.00
2020,04,25,15,24,11.20
2020,04,25,15,25,7.00
2020,04,25,15,26,7.00
2020,04,25,15,27,7.10
2020,04,25,15,28,25.70
2020,04,25,15,29,14.90
2020,04,25,15,30,15.20
2020,04,25,15,31,6.90
2020,04,25,15,32,11.00
2020,04,25,15,33,11.70
2020,04,25,15,34,26.40
2020,04,25,15,35,21.00
2020,04,25,15,36,17.50
2020,04,25,15,37,13.20
2020,04,25,15,38,15.90
2020,04,25,15,39,0.20
2020,04,25,15,40,7.20
2020,04,25,15,41,6.50
2020,04,25,15,42,15.10
2020,04,25,15,43,17.00
2020,04,25,15,44,19.40
2020,04,25,15,45,8.40
2020,04,25,15,46,1.30
2020,04,25,15,47,3.00
2020,04,25,15,48,3.60
2020,04,25,15,49,15.20
2020,04,25,15,50,12.20
2020,04,25,15,51,6.00
2020,04,25,15,52,2.70
2020,04,25,15,53,1.90
2020,04,25,15,54,0.00
2020,04,25,15,55,2.30
2020,04,25,15,56,6.40
2020,04,25,15,57,1.10
2020,04,25,15,58,0.00
2020,04,25,15,59,4.20
2020,04,25,16,00,5.10
2020,04,25,16,01,9.10
2020,04,25,16,02,11.70
2020,04,25,16,03,13.40
2020,04,25,16,04,26.00
2020,04,25,16,05,22.00
2020,04,25,16,06,18.10
2020,04,25,16,07,23.20
2020,04,25,16,08,10.00
2020,04,25,16,09,6.30
2020,04,25,16,10,12.40
2020,04,25,16,11,23.10
2020,04,25,16,12,18.60
2020,04,25,16,13,10.80
2020,04,25,16,14,19.60
2020,04,25,16,15,31.80
2020,04,25,16,16,19.20
2020,04,25,16,17,26.00
2020,04,25,16,18,24.40
2020,04,25,16,19,29.20
2020,04,25,16,20,23.60
2020,04,25,16,21,13.00
2020,04,25,16,22,14.60
2020,04,25,16,23,23.00
2020,04,25,16,24,11.80
2020,04,25,16,25,25.20
2020,04,25,16,26,9.20
2020,04,25,16,27,15.40
2020,04,25,16,28,22.90
2020,04,25,16,29,11.40
2020,04,25,16,30,10.30
2020,04,25,16,31,20.70
2020,04,25,16,32,23.70
2020,04,25,16,33,19.70
2020,04,25,16,34,13.60
2020,04,25,16,35,1.50
2020,04,25,16,36,4.70
2020,04,25,16,37,15.10
2020,04,25,16,38,11.60
2020,04,25,16,39,6.10
2020,04,25,16,40,3.10
2020,04,25,16,41,11.50
2020,04,25,16,42,26.50
2020,04,25,16,43,3.80
2020,04,25,16,44,0.20
2020,04,25,16,45,9.30
2020,04,25,16,46,10.70
2020,04,25,16,47,10.70
2020,04,25,16,48,9.80
2020,04,25,16,49,6.60
2020,04,25,16,50,13.60
2020,04,25,16,51,25.00
2020,04,25,16,52,22.90
2020,04,25,16,53,6.50
2020,04,25,16,54,4.70
2020,04,25,16,55,17.50
2020,04,25,16,56,5.60
2020,04,25,16,57,17.90
2020,04,25,16,58,9.60
2020,04,25,16,59,1.60
2020,04,25,17,00,8.10
2020,04,25,17,01,0.00
2020,04,25,17,02,0.00
2020,04,25,17,03,1.10
2020,04,25,17,04,0.10
2020,04,25,17,05,0.00
2020,04,25,17,06,0.00
2020,04,25,17,07,0.00
2020,04,25,17,08,4.10
2020,04,25,17,09,0.00
2020,04,25,17,10,0.00
2020,04,25,17,11,6.50
2020,04,25,17,12,1.90
2020,04,25,17,13,1.00
2020,04,25,17,14,3.60
2020,04,25,17,15,2.90
2020,04,25,17,16,0.00
2020,04,25,17,17,0.00
2020,04,25,17,18,0.00
2020,04,25,17,19,0.00
2020,04,25,17,20,11.70
2020,04,25,17,21,11.60
2020,04,25,17,22,13.10
2020,04,25,17,23,9.60
2020,04,25,17,24,1.90
2020,04,25,17,25,0.80
2020,04,25,17,26,0.40
2020,04,25,17,27,2.70
2020,04,25,17,28,14.00
2020,04,25,17,29,3.10
2020,04,25,17,30,0.10
2020,04,25,17,31,9.90
2020,04,25,17,32,4.50
2020,04,25,17,33,4.70
2020,04,25,17,34,5.90
2020,04,25,17,35,7.90
2020,04,25,17,36,2.60
2020,04,25,17,37,0.00
2020,04,25,17,38,0.00
2020,04,25,17,39,0.00
2020,04,25,17,40,0.00
2020,04,25,17,41,1.40
2020,04,25,17,42,2.90
2020,04,25,17,43,3.20
2020,04,25,17,44,0.80
2020,04,25,17,45,3.40
2020,04,25,17,46,1.90
2020,04,25,17,47,0.00
2020,04,25,17,48,1.50
2020,04,25,17,49,1.80
2020,04,25,17,50,0.70
2020,04,25,17,51,2.00
2020,04,25,17,52,0.00
2020,04,25,17,53,1.20
2020,04,25,17,54,0.10